This is the latest recevied weather packets stored in our database for station/object KE8RXN. If no packets are shown the sender has not sent any weather packets the latest 10 day(s).
| Time | Temp. | Humidity | Pressure | Rain* | Wind** | Luminosity | Snow |
|---|---|---|---|---|---|---|---|
| 1777595651 | 7.22° C | 57% | 1018.3 hPa | 0 mm | - | 2 W/m² | - |
| 1777595347 | 7.22° C | 57% | 1018.3 hPa | 0 mm | - | 3 W/m² | - |
| 1777595044 | 7.22° C | 56% | 1018.2 hPa | 0 mm | - | 3 W/m² | - |
| 1777594741 | 7.22° C | 55% | 1018.2 hPa | 0 mm | - | 5 W/m² | - |
| 1777594437 | 7.22° C | 54% | 1018.1 hPa | 0 mm | - | 6 W/m² | - |
| 1777594132 | 7.78° C | 54% | 1018.3 hPa | 0 mm | - | 10 W/m² | - |
| 1777593829 | 7.78° C | 53% | 1018.2 hPa | 0 mm | - | 12 W/m² | - |
| 1777593525 | 7.78° C | 53% | 1018.2 hPa | 0 mm | - | 18 W/m² | - |
| 1777593219 | 7.78° C | 53% | 1018.3 hPa | 0 mm | - | 17 W/m² | - |
| 1777592919 | 7.78° C | 52% | 1018.1 hPa | 0 mm | - | 19 W/m² | - |
| 1777592614 | 7.78° C | 53% | 1018.2 hPa | 0 mm | - | 26 W/m² | - |
| 1777592310 | 7.78° C | 52% | 1018.2 hPa | 0 mm | - | 30 W/m² | - |
| 1777592006 | 7.78° C | 51% | 1018.2 hPa | 0 mm | - | 35 W/m² | - |
| 1777591703 | 8.33° C | 52% | 1018.2 hPa | 0 mm | - | 43 W/m² | - |
| 1777591398 | 8.33° C | 52% | 1018.2 hPa | 0 mm | - | 39 W/m² | - |
| 1777591095 | 8.33° C | 51% | 1018.3 hPa | 0 mm | - | 42 W/m² | - |
| 1777590790 | 8.33° C | 51% | 1018.3 hPa | 0 mm | - | 52 W/m² | - |
| 1777590487 | 8.33° C | 49% | 1018.2 hPa | 0 mm | - | 55 W/m² | - |
| 1777590183 | 8.33° C | 50% | 1018.3 hPa | 0 mm | - | 70 W/m² | - |
| 1777589880 | 8.33° C | 50% | 1018.2 hPa | 0 mm | - | 61 W/m² | - |
| 1777589575 | 8.33° C | 50% | 1018.5 hPa | 0 mm | - | 68 W/m² | - |
| 1777589274 | 8.89° C | 51% | 1018.5 hPa | 0 mm | - | 78 W/m² | - |
| 1777588971 | 8.89° C | 50% | 1018.4 hPa | 0 mm | - | 67 W/m² | - |
| 1777588666 | 8.89° C | 49% | 1018.3 hPa | 0 mm | - | 81 W/m² | - |
| 1777588362 | 8.89° C | 49% | 1018.3 hPa | 0 mm | - | 115 W/m² | - |
* Rain latest hour (hover to see other rain measurements)
** Current wind speed in m/s (hover to see current wind gust speed)